SCP
0 0 0 0 0 0 0 0 0 0 0 0 0 0 0 0 0 0 0 0 0 0 0 0 0 0 1 2 2 3 3 5 3 3 4 2 2 2 3 3 3 3 3 2
0 0 0 0 0 0 0 0 0 0 0 0 0 0 0 0 0 0 0 0 0 0 0 0 0 1 1 1 2 3 3 4 3 3 2 2 3 2 2 2 2 2 2 3
0 0 0 0 0 0 0 0 0 0 0 0 0 0 0 0 0 0 0 0 0 0 0 0 0 0 0 1 1 1 3 3 3 3 3 5 4 2 2 3 4 2 2 1
0 0 0 0 0 0 0 0 0 0 0 0 0 0 0 0 0 0 0 0 0 0 0 0 0 0 0 0 1 1 3 2 2 2 3 3 2 2 0 2 1 2 1 2
0 0 0 0 0 0 0 0 0 0 0 0 0 0 0 0 0 0 0 0 0 0 0 0 0 0 0 0 0 1 2 2 2 2 2 2 2 2 2 2 3 2 2 2
-0 0 0 0 0 0 0 0 0 0 0 0 0 0 0 0 0 0 0 0 0 0 0 0 0 0 0 0 0 2 2 2 2 2 3 2 3 3 2 2 2 2 2 1
-0 -0 -0 0 0 0 0 0 0 0 0 0 0 0 0 0 0 0 0 0 0 0 0 0 0 0 0 0 1 2 1 1 1 2 2 2 2 2 3 2 2 3 2 3
-0 0 -0 0 0 0 0 0 0 0 0 0 0 0 0 0 0 0 0 0 0 0 0 0 0 0 0 2 2 2 2 1 2 2 2 2 2 3 3 4 3 2 2 1
-0 -0 0 0 -0 0 0 0 0 0 0 0 0 0 0 0 0 0 0 0 0 0 0 0 0 0 3 2 2 1 2 2 2 2 3 3 3 2 2 2 1 1 1 0
0 0 -0 -0 0 -0 0 0 0 0 0 0 0 0 0 0 0 0 0 0 1 0 0 0 2 3 1 1 1 1 1 1 1 1 1 1 1 1 1 1 0 0 0 0
-0 -0 -0 -0 0 -0 0 0 0 0 0 0 0 0 0 0 0 0 2 1 0 1 1 2 1 1 1 1 1 1 1 1 1 1 0 0 0 0 0 0 0 0 0 0
-0 0 0 0 0 -0 0 0 0 0 0 0 0 1 1 0 0 1 0 0 0 0 1 1 1 1 0 0 0 0 0 0 0 0 0 0 0 0 0 0 0 0 0 0
0 -0 -0 -0 0 0 -0 0 0 0 0 0 0 1 1 1 0 0 0 0 0 0 0 0 0 0 0 0 0 0 0 0 0 0 0 0 0 0 0 0 0 0 0 0
0 -0 -0 0 0 -0 0 0 0 0 0 0 0 0 0 0 0 0 0 0 0 0 0 0 0 0 0 0 0 0 0 0 0 0 0 0 0 0 0 0 0 0 0 0
-0 -0 -0 0 0 -0 0 0 0 0 0 0 0 0 0 0 0 0 0 0 0 0 0 0 0 0 0 0 0 0 0 0 0 0 0 0 0 0 0 0 0 0 0 0
0 0 0 -0 0 -0 -0 0 0 -0 0 0 0 0 0 0 0 0 0 0 0 0 0 0 0 0 0 0 0 0 0 0 0 0 0 0 0 0 0 0 0 0 0 0
0 0 0 -0 0 -0 -0 0 0 0 0 0 0 0 0 0 0 0 0 0 0 0 0 0 0 0 0 0 0 0 0 0 0 0 0 0 0 0 0 0 0 0 0 0
0 0 0 0 0 -0 -0 0 0 0 0 -0 0 0 0 0 0 0 0 0 0 0 0 0 0 0 0 0 0 0 0 0 0 0 0 0 0 0 0 0 0 0 0 0
-0 0 0 0 0 -0 -0 0 0 0 0 0 0 0 0 0 0 0 0 0 0 0 0 0 0 0 0 0 0 0 0 0 0 0 0 0 0 0 0 0 0 0 0 0
0 0 0 0 0 0 0 0 0 -0 0 0 0 0 0 0 0 0 0 0 0 0 0 0 0 0 0 0 0 0 0 0 0 0 0 0 0 0 0 0 0 0 0 0
0 0 0 0 0 0 0 -0 0 0 0 0 0 0 0 0 0 0 0 0 0 0 0 0 0 0 0 0 0 0 0 -0 0 0 0 0 0 0 0 0 0 0 0 0
0 -0 0 0 0 0 0 0 -0 0 0 -0 0 0 0 0 0 0 0 0 0 0 0 0 0 0 0 0 0 0 0 0 0 0 0 0 0 0 0 0 0 0 0 0
0 0 0 0 0 0 0 0 0 0 -0 -0 -0 0 0 0 0 0 0 0 0 0 0 0 0 -0 -0 -0 0 0 0 0 0 0 0 0 0 0 0 0 0 0 0 0
0 0 0 0 0 0 0 -0 0 0 0 -0 -0 -0 0 -0 0 0 0 0 0 0 0 0 0 -0 -0 -0 0 0 0 0 0 0 0 0 0 0 0 0 0 0 0 0
0 0 0 0 0 0 0 0 0 0 0 -0 -0 0 -0 -0 -0 0 0 0 0 0 0 -0 -0 -0 -0 -0 -0 -0 -0 0 0 0 0 0 0 0 0 0 0 0 0 0
0 0 0 0 0 0 0 0 0 0 -0 -0 -0 0 -0 0 0 -0 0 0 0 0 0 -0 -0 -0 -0 -0 -0 0 0 0 0 0 0 0 0 0 0 0 0 0 0 0
Wind_Speed_500mb
62 36 48 71 69 60 52 51 53 50 43 55 49 46 49 43 35 43 53 63 66 65 62 60 52 53 53 58 52 50 52 51 52 55 56 51 37 34 33 35 42 41 33 29
41 54 65 57 57 60 58 59 50 41 48 31 39 42 49 49 44 48 52 52 58 59 63 64 55 52 50 49 47 46 53 57 55 51 44 33 31 28 26 24 26 24 26 31
54 51 57 56 57 55 62 57 54 35 28 31 34 41 47 49 50 53 48 55 54 54 63 65 60 52 49 48 50 49 52 57 52 47 38 39 32 22 23 25 31 28 26 24
40 50 50 57 57 60 55 59 49 48 30 35 39 32 42 43 50 49 58 52 55 59 57 61 62 52 52 49 45 44 50 48 43 39 49 44 27 21 20 23 18 23 28 23
46 51 49 41 52 55 59 44 50 52 41 33 47 32 40 56 54 56 53 66 61 57 63 69 65 57 53 47 44 42 45 44 47 47 39 34 27 22 15 16 23 17 21 20
41 48 26 42 46 45 49 45 49 52 34 34 39 36 32 37 49 48 51 65 65 62 60 63 68 61 54 47 44 45 52 50 49 48 38 34 28 21 19 18 13 12 14 13
51 47 35 40 48 46 48 42 20 27 33 29 49 42 34 45 37 45 43 60 63 62 61 61 65 65 58 54 51 48 54 45 40 39 38 37 34 27 20 14 9 10 2 9
7 18 48 38 50 54 57 49 29 35 45 50 52 54 42 30 21 19 36 58 63 62 61 61 63 61 57 47 46 42 41 40 40 44 39 33 29 24 22 21 24 18 13 16
10 16 11 44 43 51 57 45 53 34 43 36 45 42 47 28 16 10 6 26 60 61 60 58 55 54 51 44 40 37 42 52 49 48 49 50 37 33 26 23 16 18 11 6
15 21 17 31 49 58 48 52 45 32 35 37 46 42 28 42 33 24 29 20 23 24 37 45 47 52 45 41 41 45 44 45 45 39 36 33 31 29 24 19 14 9 9 12
14 14 9 26 37 47 33 39 46 41 30 31 33 42 31 41 37 31 35 31 30 37 49 54 54 52 47 46 50 49 47 49 46 42 40 39 35 33 26 19 12 9 7 4
8 8 15 35 36 41 34 43 57 27 46 28 25 13 28 44 39 42 34 37 35 41 51 55 62 66 64 63 55 54 51 48 44 41 39 36 31 25 19 12 8 6 3 5
9 8 9 6 4 33 57 54 55 44 38 29 26 14 22 45 43 44 41 37 46 56 62 65 63 61 63 61 56 51 47 44 39 37 33 29 22 15 9 5 2 4 10 13
8 8 21 12 31 32 17 37 54 50 16 27 5 29 28 31 38 31 40 44 54 58 66 69 66 63 60 54 51 48 45 41 38 34 31 24 19 14 10 9 11 16 15 20
2 12 21 39 20 37 31 39 47 41 29 9 39 34 35 37 38 36 50 53 60 59 60 64 64 60 56 53 49 45 42 39 35 32 29 24 18 12 10 12 14 16 18 22
8 7 19 31 33 42 43 43 50 47 42 10 28 43 38 45 54 47 50 59 61 62 63 63 59 55 51 48 44 43 39 36 32 30 27 21 19 16 19 19 17 20 23 21
9 11 11 23 33 26 36 44 43 23 33 21 20 33 45 40 35 40 53 59 61 62 62 59 54 49 46 44 40 39 36 33 31 27 23 19 18 17 19 19 20 21 21 18
12 11 3 19 29 17 14 32 36 26 34 50 28 42 37 45 58 56 53 61 60 59 56 51 50 47 45 41 40 37 34 31 29 26 24 23 23 23 22 21 21 22 20 19
19 7 5 6 2 23 25 25 29 18 23 33 41 44 56 75 77 51 51 54 57 56 52 50 47 45 42 39 36 34 34 31 29 28 28 27 27 23 22 22 23 24 23 24
12 20 5 10 10 12 22 28 37 36 16 35 42 44 48 62 29 15 49 53 55 52 49 48 44 42 39 37 34 33 32 29 31 28 26 24 24 22 21 22 22 23 24 24
12 7 6 12 13 13 14 43 37 10 12 36 50 54 47 25 28 52 53 51 48 48 48 45 42 40 38 34 30 33 31 32 26 24 23 23 21 21 20 20 21 22 24 23
9 14 13 14 9 13 32 13 30 26 68 58 47 63 76 83 66 57 53 51 49 47 44 41 40 39 36 31 30 32 32 25 21 21 21 21 20 18 18 19 20 22 25 22
7 13 6 11 6 23 12 43 44 56 74 60 66 67 80 79 67 55 54 49 47 44 42 39 40 39 36 34 30 29 24 22 19 20 22 23 19 18 19 23 22 22 22 25
17 32 8 3 20 18 54 60 60 59 63 70 79 75 78 79 65 62 53 49 47 43 40 36 36 36 35 32 31 28 21 19 19 20 21 17 19 20 21 25 25 28 28 30
11 16 10 5 10 40 47 56 57 63 75 79 70 67 70 76 71 58 55 50 45 40 37 34 33 33 31 28 29 26 22 17 18 19 18 15 17 21 22 30 32 31 33 31
18 10 6 5 17 29 37 58 64 78 79 72 84 80 70 65 64 58 53 46 42 39 35 33 31 29 28 27 25 23 21 19 17 16 17 21 29 19 19 18 26 30 28 31
Wind_Direction_500mb
210 222 217 217 221 231 240 228 231 227 229 224 212 238 220 240 198 219 212 217 223 221 212 206 203 196 191 191 195 194 195 194 210 197 200 211 206 206 208 220 229 226 226 229
212 219 228 229 225 231 240 242 246 233 218 225 207 232 242 218 221 213 215 213 210 213 208 199 195 193 192 196 194 200 198 202 208 202 197 202 199 205 212 218 215 215 225 234
224 215 229 233 233 226 225 228 233 236 194 212 230 237 228 233 216 210 216 211 213 203 206 198 184 189 189 189 189 193 206 210 209 208 193 199 188 201 194 203 213 221 226 236
230 255 229 212 228 222 229 218 239 238 228 213 202 237 223 221 222 218 210 209 203 208 205 202 187 186 188 190 189 186 209 216 206 206 189 188 185 189 206 216 233 231 233 234
224 225 240 213 211 222 230 229 215 235 232 231 202 219 248 199 216 210 210 211 210 199 201 204 197 194 191 189 185 181 199 203 192 186 179 173 181 199 201 216 227 213 237 224
277 282 302 261 243 205 220 221 216 226 213 225 233 198 225 195 213 213 199 207 206 204 200 201 198 193 189 185 180 176 189 198 190 188 170 166 185 173 193 197 208 230 249 255
232 212 231 243 229 218 210 200 193 208 216 221 215 227 232 210 185 206 195 195 202 199 198 194 197 193 192 189 178 171 191 187 178 171 178 168 173 162 168 165 171 202 203 206
228 226 219 203 227 205 196 200 200 189 196 212 223 215 208 242 151 172 184 187 196 194 193 190 192 190 193 157 157 161 177 172 163 175 162 163 160 158 161 147 186 172 157 208
290 236 183 234 204 229 187 206 210 215 200 216 209 215 217 170 140 146 234 181 185 188 191 188 179 184 144 143 150 161 168 164 166 157 159 153 149 152 157 166 166 175 184 244
307 292 220 193 195 218 207 196 215 236 211 204 199 198 186 184 164 174 183 103 71 160 184 152 136 131 131 144 154 162 162 151 148 137 140 138 137 141 141 151 166 179 213 231
299 272 294 242 207 202 188 199 212 224 229 207 203 192 175 182 166 163 110 95 86 92 102 108 115 121 134 141 145 140 135 129 125 125 125 122 122 124 127 128 128 131 142 210
240 299 231 231 198 198 208 207 207 214 218 255 207 103 346 172 133 107 103 98 98 100 109 114 119 127 131 130 127 127 126 124 122 121 118 121 129 130 136 139 142 147 224 276
328 252 176 253 240 215 200 187 215 210 233 228 207 130 67 94 103 100 101 107 111 110 113 118 124 127 125 123 123 123 121 119 116 113 118 122 121 118 109 96 11 306 305 295
321 267 269 236 175 194 156 214 201 204 221 235 132 145 120 111 100 106 117 113 110 112 114 117 119 120 118 119 119 117 113 111 107 103 102 103 100 89 60 21 351 327 327 321
214 270 257 249 261 184 189 187 216 170 221 276 136 148 138 125 115 125 121 119 114 114 112 112 113 116 118 116 114 111 107 103 100 98 94 90 80 60 23 356 347 329 323 324
210 256 251 245 220 171 198 201 203 194 209 210 214 134 125 112 116 124 123 118 114 114 112 112 113 115 113 110 107 101 96 92 88 85 78 68 56 41 13 13 2 349 349 348
282 319 360 133 131 144 194 196 215 114 238 296 162 115 124 119 122 122 124 118 117 116 115 112 112 110 108 104 101 97 94 91 85 79 72 62 48 28 17 14 2 358 358 344
286 302 316 134 126 149 202 214 229 152 74 98 109 121 114 106 101 103 107 111 109 110 113 111 109 105 100 99 94 91 88 84 78 69 58 45 39 28 23 17 9 8 358 349
215 286 41 131 296 138 160 185 164 107 96 95 116 109 109 104 94 85 104 109 112 112 110 108 104 100 96 93 92 88 82 77 71 62 55 46 41 35 28 22 12 4 2 348
210 226 256 173 162 141 160 153 134 131 78 114 126 125 122 118 100 100 110 111 109 108 106 103 98 93 89 85 85 85 81 75 66 58 54 49 47 36 30 29 23 17 8 1
307 269 197 177 82 93 232 164 150 180 126 158 140 137 138 108 109 120 115 109 106 106 102 99 92 88 84 83 86 83 76 68 64 60 55 51 52 35 32 27 16 4 2 3
318 334 12 347 93 82 354 277 175 120 142 152 145 111 106 111 114 113 113 108 102 101 97 96 96 87 81 77 76 73 69 64 65 62 59 53 47 44 30 26 22 9 20 27
357 30 42 15 29 292 62 113 103 130 133 123 119 124 125 116 121 122 115 110 105 103 100 95 89 84 75 69 69 69 66 66 63 67 60 51 45 48 42 34 30 27 29 33
351 21 43 328 341 58 91 98 107 120 122 123 123 126 126 125 122 117 114 110 106 102 98 95 89 82 74 67 64 63 63 64 68 77 63 66 44 44 42 35 35 34 39 39
343 315 39 60 360 53 77 98 111 112 115 114 114 121 123 122 114 114 112 108 104 102 96 91 89 84 79 72 64 59 54 65 66 75 66 54 76 46 21 27 34 27 30 33
330 323 347 38 11 93 97 108 112 108 112 117 117 112 107 108 115 111 107 106 104 99 96 94 91 87 77 69 65 60 54 54 72 78 77 65 65 51 48 40 17 24 26 28
Wind_Speed_850mb
62 36 48 71 69 60 52 51 53 50 43 55 49 46 49 43 35 43 53 63 66 65 62 60 52 53 53 58 52 50 52 51 52 55 56 51 37 34 33 35 42 41 33 29
41 54 65 57 57 60 58 59 50 41 48 31 39 42 49 49 44 48 52 52 58 59 63 64 55 52 50 49 47 46 53 57 55 51 44 33 31 28 26 24 26 24 26 31
54 51 57 56 57 55 62 57 54 35 28 31 34 41 47 49 50 53 48 55 54 54 63 65 60 52 49 48 50 49 52 57 52 47 38 39 32 22 23 25 31 28 26 24
40 50 50 57 57 60 55 59 49 48 30 35 39 32 42 43 50 49 58 52 55 59 57 61 62 52 52 49 45 44 50 48 43 39 49 44 27 21 20 23 18 23 28 23
46 51 49 41 52 55 59 44 50 52 41 33 47 32 40 56 54 56 53 66 61 57 63 69 65 57 53 47 44 42 45 44 47 47 39 34 27 22 15 16 23 17 21 20
41 48 26 42 46 45 49 45 49 52 34 34 39 36 32 37 49 48 51 65 65 62 60 63 68 61 54 47 44 45 52 50 49 48 38 34 28 21 19 18 13 12 14 13
51 47 35 40 48 46 48 42 20 27 33 29 49 42 34 45 37 45 43 60 63 62 61 61 65 65 58 54 51 48 54 45 40 39 38 37 34 27 20 14 9 10 2 9
7 18 48 38 50 54 57 49 29 35 45 50 52 54 42 30 21 19 36 58 63 62 61 61 63 61 57 47 46 42 41 40 40 44 39 33 29 24 22 21 24 18 13 16
10 16 11 44 43 51 57 45 53 34 43 36 45 42 47 28 16 10 6 26 60 61 60 58 55 54 51 44 40 37 42 52 49 48 49 50 37 33 26 23 16 18 11 6
15 21 17 31 49 58 48 52 45 32 35 37 46 42 28 42 33 24 29 20 23 24 37 45 47 52 45 41 41 45 44 45 45 39 36 33 31 29 24 19 14 9 9 12
14 14 9 26 37 47 33 39 46 41 30 31 33 42 31 41 37 31 35 31 30 37 49 54 54 52 47 46 50 49 47 49 46 42 40 39 35 33 26 19 12 9 7 4
8 8 15 35 36 41 34 43 57 27 46 28 25 13 28 44 39 42 34 37 35 41 51 55 62 66 64 63 55 54 51 48 44 41 39 36 31 25 19 12 8 6 3 5
9 8 9 6 4 33 57 54 55 44 38 29 26 14 22 45 43 44 41 37 46 56 62 65 63 61 63 61 56 51 47 44 39 37 33 29 22 15 9 5 2 4 10 13
8 8 21 12 31 32 17 37 54 50 16 27 5 29 28 31 38 31 40 44 54 58 66 69 66 63 60 54 51 48 45 41 38 34 31 24 19 14 10 9 11 16 15 20
2 12 21 39 20 37 31 39 47 41 29 9 39 34 35 37 38 36 50 53 60 59 60 64 64 60 56 53 49 45 42 39 35 32 29 24 18 12 10 12 14 16 18 22
8 7 19 31 33 42 43 43 50 47 42 10 28 43 38 45 54 47 50 59 61 62 63 63 59 55 51 48 44 43 39 36 32 30 27 21 19 16 19 19 17 20 23 21
9 11 11 23 33 26 36 44 43 23 33 21 20 33 45 40 35 40 53 59 61 62 62 59 54 49 46 44 40 39 36 33 31 27 23 19 18 17 19 19 20 21 21 18
12 11 3 19 29 17 14 32 36 26 34 50 28 42 37 45 58 56 53 61 60 59 56 51 50 47 45 41 40 37 34 31 29 26 24 23 23 23 22 21 21 22 20 19
19 7 5 6 2 23 25 25 29 18 23 33 41 44 56 75 77 51 51 54 57 56 52 50 47 45 42 39 36 34 34 31 29 28 28 27 27 23 22 22 23 24 23 24
12 20 5 10 10 12 22 28 37 36 16 35 42 44 48 62 29 15 49 53 55 52 49 48 44 42 39 37 34 33 32 29 31 28 26 24 24 22 21 22 22 23 24 24
12 7 6 12 13 13 14 43 37 10 12 36 50 54 47 25 28 52 53 51 48 48 48 45 42 40 38 34 30 33 31 32 26 24 23 23 21 21 20 20 21 22 24 23
9 14 13 14 9 13 32 13 30 26 68 58 47 63 76 83 66 57 53 51 49 47 44 41 40 39 36 31 30 32 32 25 21 21 21 21 20 18 18 19 20 22 25 22
7 13 6 11 6 23 12 43 44 56 74 60 66 67 80 79 67 55 54 49 47 44 42 39 40 39 36 34 30 29 24 22 19 20 22 23 19 18 19 23 22 22 22 25
17 32 8 3 20 18 54 60 60 59 63 70 79 75 78 79 65 62 53 49 47 43 40 36 36 36 35 32 31 28 21 19 19 20 21 17 19 20 21 25 25 28 28 30
11 16 10 5 10 40 47 56 57 63 75 79 70 67 70 76 71 58 55 50 45 40 37 34 33 33 31 28 29 26 22 17 18 19 18 15 17 21 22 30 32 31 33 31
18 10 6 5 17 29 37 58 64 78 79 72 84 80 70 65 64 58 53 46 42 39 35 33 31 29 28 27 25 23 21 19 17 16 17 21 29 19 19 18 26 30 28 31
Wind_Direction_850mb
210 222 217 217 221 231 240 228 231 227 229 224 212 238 220 240 198 219 212 217 223 221 212 206 203 196 191 191 195 194 195 194 210 197 200 211 206 206 208 220 229 226 226 229
212 219 228 229 225 231 240 242 246 233 218 225 207 232 242 218 221 213 215 213 210 213 208 199 195 193 192 196 194 200 198 202 208 202 197 202 199 205 212 218 215 215 225 234
224 215 229 233 233 226 225 228 233 236 194 212 230 237 228 233 216 210 216 211 213 203 206 198 184 189 189 189 189 193 206 210 209 208 193 199 188 201 194 203 213 221 226 236
230 255 229 212 228 222 229 218 239 238 228 213 202 237 223 221 222 218 210 209 203 208 205 202 187 186 188 190 189 186 209 216 206 206 189 188 185 189 206 216 233 231 233 234
224 225 240 213 211 222 230 229 215 235 232 231 202 219 248 199 216 210 210 211 210 199 201 204 197 194 191 189 185 181 199 203 192 186 179 173 181 199 201 216 227 213 237 224
277 282 302 261 243 205 220 221 216 226 213 225 233 198 225 195 213 213 199 207 206 204 200 201 198 193 189 185 180 176 189 198 190 188 170 166 185 173 193 197 208 230 249 255
232 212 231 243 229 218 210 200 193 208 216 221 215 227 232 210 185 206 195 195 202 199 198 194 197 193 192 189 178 171 191 187 178 171 178 168 173 162 168 165 171 202 203 206
228 226 219 203 227 205 196 200 200 189 196 212 223 215 208 242 151 172 184 187 196 194 193 190 192 190 193 157 157 161 177 172 163 175 162 163 160 158 161 147 186 172 157 208
290 236 183 234 204 229 187 206 210 215 200 216 209 215 217 170 140 146 234 181 185 188 191 188 179 184 144 143 150 161 168 164 166 157 159 153 149 152 157 166 166 175 184 244
307 292 220 193 195 218 207 196 215 236 211 204 199 198 186 184 164 174 183 103 71 160 184 152 136 131 131 144 154 162 162 151 148 137 140 138 137 141 141 151 166 179 213 231
299 272 294 242 207 202 188 199 212 224 229 207 203 192 175 182 166 163 110 95 86 92 102 108 115 121 134 141 145 140 135 129 125 125 125 122 122 124 127 128 128 131 142 210
240 299 231 231 198 198 208 207 207 214 218 255 207 103 346 172 133 107 103 98 98 100 109 114 119 127 131 130 127 127 126 124 122 121 118 121 129 130 136 139 142 147 224 276
328 252 176 253 240 215 200 187 215 210 233 228 207 130 67 94 103 100 101 107 111 110 113 118 124 127 125 123 123 123 121 119 116 113 118 122 121 118 109 96 11 306 305 295
321 267 269 236 175 194 156 214 201 204 221 235 132 145 120 111 100 106 117 113 110 112 114 117 119 120 118 119 119 117 113 111 107 103 102 103 100 89 60 21 351 327 327 321
214 270 257 249 261 184 189 187 216 170 221 276 136 148 138 125 115 125 121 119 114 114 112 112 113 116 118 116 114 111 107 103 100 98 94 90 80 60 23 356 347 329 323 324
210 256 251 245 220 171 198 201 203 194 209 210 214 134 125 112 116 124 123 118 114 114 112 112 113 115 113 110 107 101 96 92 88 85 78 68 56 41 13 13 2 349 349 348
282 319 360 133 131 144 194 196 215 114 238 296 162 115 124 119 122 122 124 118 117 116 115 112 112 110 108 104 101 97 94 91 85 79 72 62 48 28 17 14 2 358 358 344
286 302 316 134 126 149 202 214 229 152 74 98 109 121 114 106 101 103 107 111 109 110 113 111 109 105 100 99 94 91 88 84 78 69 58 45 39 28 23 17 9 8 358 349
215 286 41 131 296 138 160 185 164 107 96 95 116 109 109 104 94 85 104 109 112 112 110 108 104 100 96 93 92 88 82 77 71 62 55 46 41 35 28 22 12 4 2 348
210 226 256 173 162 141 160 153 134 131 78 114 126 125 122 118 100 100 110 111 109 108 106 103 98 93 89 85 85 85 81 75 66 58 54 49 47 36 30 29 23 17 8 1
307 269 197 177 82 93 232 164 150 180 126 158 140 137 138 108 109 120 115 109 106 106 102 99 92 88 84 83 86 83 76 68 64 60 55 51 52 35 32 27 16 4 2 3
318 334 12 347 93 82 354 277 175 120 142 152 145 111 106 111 114 113 113 108 102 101 97 96 96 87 81 77 76 73 69 64 65 62 59 53 47 44 30 26 22 9 20 27
357 30 42 15 29 292 62 113 103 130 133 123 119 124 125 116 121 122 115 110 105 103 100 95 89 84 75 69 69 69 66 66 63 67 60 51 45 48 42 34 30 27 29 33
351 21 43 328 341 58 91 98 107 120 122 123 123 126 126 125 122 117 114 110 106 102 98 95 89 82 74 67 64 63 63 64 68 77 63 66 44 44 42 35 35 34 39 39
343 315 39 60 360 53 77 98 111 112 115 114 114 121 123 122 114 114 112 108 104 102 96 91 89 84 79 72 64 59 54 65 66 75 66 54 76 46 21 27 34 27 30 33
330 323 347 38 11 93 97 108 112 108 112 117 117 112 107 108 115 111 107 106 104 99 96 94 91 87 77 69 65 60 54 54 72 78 77 65 65 51 48 40 17 24 26 28